Palmdale, CA

12:43 AM PST on January 24, 2018 (GMT -0800)
Palmdale Af Plant 42

Weather History for KPMD - April, 2011

Change the Weather History Date:

Thursday, April 7, 2011

  Actual Average Record
Temperature  
Mean Temperature 49 °F 56 °F  
Max Temperature 59 °F 70 °F 98 °F (1989)
Min Temperature 38 °F 41 °F 29 °F (1975)
Degree Days  
Heating Degree Days 16 10  
Month to date heating degree days 40 71  
Since 1 July heating degree days 2707 2692  
Cooling Degree Days 0 0  
Month to date cooling degree days 1 0  
Year to date cooling degree days 2 2  
Moisture  
Dew Point 36 °F    
Average Humidity 64    
Maximum Humidity 86    
Minimum Humidity 42    
Precipitation  
Precipitation T in 0.02 in 0.64 in (1952)
Month to date precipitation T 0.12  
Year to date precipitation 2.33 4.63  
Since 1 July precipitation 7.71  
Snow  
Snow 0.00 in - T in (1958)
Month to date snowfall 0.0  
Since 1 July snowfall 0.0  
Snow Depth 0.00 in    
Sea Level Pressure  
Sea Level Pressure 29.79 in    
Wind  
Wind Speed 20 mph (WSW)    
Max Wind Speed 40 mph    
Max Gust Speed 49 mph    
Visibility 10 miles    
Events      
T = Trace of Precipitation, MM = Missing Value Source: NWS Daily Summary

Daily Weather History Graph

Daily Weather History Graph

Search for Another Location

Airport or City:

Trip Planner

Search our weather history database for the weather conditions in past years. The results will help you decide how hot, cold, wet, or windy it might be!

Date:

Astronomy

Apr. 07, 2011 Rise Set
Actual Time 6:31 AM PDT 7:17 PM PDT
Civil Twilight 6:05 AM PDT 7:43 PM PDT
Nautical Twilight 5:35 AM PDT 8:13 PM PDT
Astronomical Twilight 5:04 AM PDT 8:44 PM PDT
Moon 8:42 AM PDT (4/7) 11:28 PM PDT (4/7)
Length of Visible Light 13h 37m
Length of Day
12h 46m
Waxing Crescent, 15% of the Moon is Illuminated
Apr 7
Waxing Crescent
Apr 11
First Quarter
Apr 17
Full
Apr 24
Last Quarter
May 2
New

Hourly Weather History & Observations

Time (PDT) Temp. Windchill Dew Point Humidity Pressure Visibility Wind Dir Wind Speed Gust Speed Precip Events Conditions
12:53 AM 54.0 °F - 41.0 °F 62% 29.91 in 10.0 mi SW 10.4 mph - N/A   Clear
1:53 AM 53.1 °F - 42.1 °F 66% 29.88 in 10.0 mi WSW 12.7 mph - N/A   Clear
2:53 AM 50.0 °F - 43.0 °F 77% 29.88 in 10.0 mi WSW 13.8 mph - N/A   Clear
3:53 AM 48.0 °F - 44.1 °F 86% 29.87 in 8.0 mi West 11.5 mph - N/A   Clear
4:53 AM 46.9 °F - 42.1 °F 83% 29.86 in 8.0 mi West 12.7 mph - N/A   Clear
5:53 AM 48.0 °F - 30.9 °F 52% 29.86 in 10.0 mi WNW 20.7 mph 28.8 mph N/A   Scattered Clouds
6:53 AM 48.0 °F - 27.0 °F 44% 29.85 in 10.0 mi WNW 21.9 mph - N/A   Mostly Cloudy
7:53 AM 50.0 °F - 33.1 °F 52% 29.85 in 10.0 mi West 15.0 mph - N/A   Mostly Cloudy
8:53 AM 54.0 °F - 42.1 °F 64% 29.82 in 10.0 mi SW 24.2 mph 31.1 mph N/A   Mostly Cloudy
9:53 AM 57.0 °F - 39.0 °F 51% 29.81 in 10.0 mi SW 24.2 mph 33.4 mph N/A   Partly Cloudy
10:53 AM 57.0 °F - 37.9 °F 49% 29.80 in 10.0 mi SW 21.9 mph 29.9 mph N/A   Scattered Clouds
11:53 AM 59.0 °F - 39.9 °F 49% 29.79 in 10.0 mi SSW 23.0 mph 33.4 mph N/A   Partly Cloudy
12:53 PM 57.9 °F - 37.9 °F 47% 29.77 in 10.0 mi SW 27.6 mph 34.5 mph N/A   Scattered Clouds
1:53 PM 57.9 °F - 37.0 °F 46% 29.74 in 10.0 mi SW 24.2 mph 34.5 mph N/A   Mostly Cloudy
2:53 PM 55.9 °F - 35.1 °F 45% 29.71 in 10.0 mi SW 29.9 mph 40.3 mph N/A   Clear
3:53 PM 54.0 °F - 34.0 °F 47% 29.70 in 10.0 mi SW 33.4 mph 42.6 mph N/A   Partly Cloudy
4:53 PM 53.1 °F - 34.0 °F 48% 29.70 in 10.0 mi SW 29.9 mph 48.3 mph N/A   Partly Cloudy
5:53 PM 50.0 °F - 34.0 °F 54% 29.70 in 10.0 mi SW 27.6 mph 36.8 mph N/A   Partly Cloudy
6:53 PM 46.0 °F 37.2 °F 33.1 °F 61% 29.70 in 10.0 mi SW 26.5 mph 35.7 mph 0.00 in   Clear
7:53 PM 44.1 °F 36.2 °F 30.9 °F 60% 29.73 in 10.0 mi West 18.4 mph 31.1 mph N/A   Scattered Clouds
8:53 PM 43.0 °F 35.4 °F 30.9 °F 62% 29.74 in 10.0 mi WSW 16.1 mph 28.8 mph N/A   Overcast
9:53 PM 41.0 °F 31.9 °F 30.9 °F 67% 29.74 in 10.0 mi SW 19.6 mph - N/A   Scattered Clouds
10:53 PM 39.9 °F 32.9 °F 30.9 °F 70% 29.74 in 10.0 mi WSW 11.5 mph 21.9 mph N/A   Partly Cloudy
11:53 PM 39.0 °F 32.3 °F 30.9 °F 73% 29.75 in 10.0 mi WSW 10.4 mph - N/A   Mostly Cloudy